Pampa / Mesa Vista, TX

6:13 PM CDT on April 24, 2017 (GMT -0500)
Pampa / Mesa Vista

Weather History for KBPC - March, 2013

Change the Weather History Date:

Sunday, March 10, 2013

  Actual Average (KBGD) Record (KBGD)
Temperature  
Mean Temperature 32 °F -  
Max Temperature 41 °F 57 °F 91 °F (1989)
Min Temperature 23 °F 32 °F 15 °F (1998)
Degree Days  
Heating Degree Days 32    
Moisture  
Dew Point 21 °F    
Average Humidity 61    
Maximum Humidity 93    
Minimum Humidity 36    
Precipitation  
Precipitation 0.00 in - - ()
Sea Level Pressure  
Sea Level Pressure 30.01 in    
Wind  
Wind Speed 24 mph (NNW)    
Max Wind Speed 34 mph    
Max Gust Speed 45 mph    
Visibility 10 miles    
Events Rain , Snow    
Averages and records for this station are not official NWS values.
T = Trace of Precipitation, MM = Missing Value Source: NWS Daily Summary

Daily Weather History Graph

Daily Weather History Graph

Search for Another Location

Airport or City:

Trip Planner

Search our weather history database for the weather conditions in past years. The results will help you decide how hot, cold, wet, or windy it might be!

Date:

Astronomy

Mar. 10, 2013 Rise Set
Actual Time 8:01 AM CDT 7:47 PM CDT
Civil Twilight 7:36 AM CDT 8:13 PM CDT
Nautical Twilight 7:06 AM CDT 8:42 PM CDT
Astronomical Twilight 6:36 AM CDT 9:12 PM CDT
Moon 7:01 AM CDT (3/10) 6:57 PM CDT (3/10)
Length of Visible Light 12h 37m
Length of Day
11h 45m
Waning Crescent, 2% of the Moon is Illuminated
Mar 10
Waning Crescent
Mar 11
New
Mar 19
First Quarter
Mar 27
Full
Apr 2
Last Quarter

Hourly Weather History & Observations

Time (CDT) Temp. Windchill Dew Point Humidity Pressure Visibility Wind Dir Wind Speed Gust Speed Precip Events Conditions
12:15 AM 37.4 °F 26.4 °F 30.2 °F 75% 29.79 in 10.0 mi NNW 23.0 mph 35.7 mph N/A   Overcast
12:35 AM 37.4 °F 25.9 °F 28.4 °F 70% 29.80 in 10.0 mi NW 25.3 mph 36.8 mph N/A   Overcast
12:55 AM 35.6 °F 21.7 °F 28.4 °F 75% 29.81 in 10.0 mi NW 34.5 mph 41.4 mph N/A   Mostly Cloudy
1:15 AM 35.6 °F 23.0 °F 28.4 °F 75% 29.83 in 10.0 mi NNW 27.6 mph 36.8 mph N/A   Overcast
1:35 AM 35.6 °F 23.2 °F 30.2 °F 81% 29.85 in 10.0 mi North 26.5 mph 40.3 mph N/A   Overcast
1:55 AM 35.6 °F 23.2 °F 30.2 °F 81% 29.86 in 10.0 mi North 26.5 mph 33.4 mph N/A   Overcast
3:15 AM 35.6 °F 23.4 °F 30.2 °F 81% 29.86 in 10.0 mi North 25.3 mph 33.4 mph N/A   Overcast
3:35 AM 35.6 °F 24.0 °F 32.0 °F 87% 29.87 in 7.0 mi North 23.0 mph 40.3 mph N/A Rain Rain
3:55 AM 33.8 °F 21.3 °F 32.0 °F 93% 29.86 in 3.0 mi NNW 24.2 mph 31.1 mph N/A Rain Light Rain
4:15 AM 33.8 °F 20.5 °F 32.0 °F 93% 29.86 in 4.0 mi North 27.6 mph 39.1 mph N/A Snow Light Snow
4:35 AM 33.8 °F 20.5 °F 32.0 °F 93% 29.86 in 10.0 mi North 27.6 mph 41.4 mph N/A   Overcast
4:55 AM 33.8 °F 21.3 °F 32.0 °F 93% 29.87 in 10.0 mi North 24.2 mph 32.2 mph N/A   Overcast
5:15 AM 33.8 °F 21.6 °F 32.0 °F 93% 29.88 in 10.0 mi NNW 23.0 mph 33.4 mph N/A   Light Drizzle
5:35 AM 33.8 °F 20.3 °F 32.0 °F 93% 29.90 in 10.0 mi NNW 28.8 mph 38.0 mph N/A   Light Drizzle
5:55 AM 33.8 °F 21.9 °F 30.2 °F 87% 29.91 in 10.0 mi NNW 21.9 mph 41.4 mph N/A   Light Drizzle
6:15 AM 33.8 °F 19.4 °F 30.2 °F 87% 29.92 in 10.0 mi North 33.4 mph 43.7 mph N/A   Overcast
6:35 AM 33.8 °F 21.9 °F 30.2 °F 87% 29.94 in 10.0 mi NNW 21.9 mph 32.2 mph N/A   Overcast
7:15 AM 32.0 °F 19.5 °F 28.4 °F 87% 29.96 in 10.0 mi North 21.9 mph 36.8 mph N/A   Overcast
7:35 AM 32.0 °F 17.4 °F 28.4 °F 87% 29.96 in 10.0 mi North 31.1 mph 41.4 mph N/A   Overcast
7:55 AM 32.0 °F 19.8 °F 26.6 °F 80% 29.98 in 10.0 mi NNW 20.7 mph 42.6 mph N/A   Overcast
8:15 AM 32.0 °F 19.5 °F 23.0 °F 69% 29.99 in 10.0 mi NNW 21.9 mph 31.1 mph N/A   Scattered Clouds
8:35 AM 32.0 °F 20.1 °F 23.0 °F 69% 29.99 in 10.0 mi North 19.6 mph 32.2 mph N/A   Clear
8:55 AM 32.0 °F 18.1 °F 23.0 °F 69% 30.00 in 10.0 mi North 27.6 mph 35.7 mph N/A   Clear
9:15 AM 32.0 °F 18.9 °F 23.0 °F 69% 30.01 in 10.0 mi North 24.2 mph 35.7 mph N/A   Scattered Clouds
9:35 AM 32.0 °F 18.4 °F 23.0 °F 69% 30.03 in 10.0 mi North 26.5 mph 39.1 mph N/A   Overcast
9:55 AM 32.0 °F 17.9 °F 21.2 °F 64% 30.04 in 10.0 mi North 28.8 mph 34.5 mph N/A   Overcast
10:15 AM 32.0 °F 19.5 °F 21.2 °F 64% 30.06 in 10.0 mi North 21.9 mph 34.5 mph N/A   Overcast
10:35 AM 33.8 °F 20.3 °F 21.2 °F 60% 30.07 in 10.0 mi NNW 28.8 mph 39.1 mph N/A   Overcast
10:55 AM 33.8 °F 21.0 °F 21.2 °F 60% 30.06 in 10.0 mi North 25.3 mph 39.1 mph N/A   Overcast
11:15 AM 33.8 °F 21.0 °F 21.2 °F 60% 30.07 in 10.0 mi North 25.3 mph 35.7 mph N/A   Overcast
11:35 AM 33.8 °F 20.3 °F 21.2 °F 60% 30.07 in 10.0 mi North 28.8 mph 36.8 mph N/A   Overcast
11:55 AM 35.6 °F 22.5 °F 19.4 °F 52% 30.08 in 10.0 mi North 29.9 mph 38.0 mph N/A   Overcast
12:15 PM 37.4 °F 25.2 °F 19.4 °F 48% 30.08 in 10.0 mi North 28.8 mph 39.1 mph N/A   Overcast
12:35 PM 39.2 °F 27.2 °F 19.4 °F 45% 30.07 in 10.0 mi North 31.1 mph 39.1 mph N/A   Scattered Clouds
12:55 PM 39.2 °F 27.0 °F 19.4 °F 45% 30.07 in 10.0 mi North 32.2 mph 40.3 mph N/A   Scattered Clouds
1:15 PM 39.2 °F 26.8 °F 17.6 °F 42% 30.06 in 10.0 mi North 33.4 mph 42.6 mph N/A   Scattered Clouds
1:35 PM 37.4 °F 26.1 °F 17.6 °F 45% 30.06 in 10.0 mi North 24.2 mph 41.4 mph N/A   Mostly Cloudy
1:55 PM 41.0 °F 29.1 °F 15.8 °F 36% 30.05 in 10.0 mi North 34.5 mph 41.4 mph N/A   Scattered Clouds
2:15 PM 39.2 °F 27.2 °F 15.8 °F 39% 30.05 in 10.0 mi NNW 31.1 mph 44.9 mph N/A   Scattered Clouds
2:35 PM 39.2 °F 27.8 °F 17.6 °F 42% 30.04 in 10.0 mi NNW 27.6 mph 39.1 mph N/A   Scattered Clouds
2:55 PM 41.0 °F 30.5 °F 17.6 °F 39% 30.04 in 10.0 mi NNW 26.5 mph 39.1 mph N/A   Mostly Cloudy
3:15 PM 41.0 °F 30.9 °F 17.6 °F 39% 30.04 in 10.0 mi NNW 24.2 mph 33.4 mph N/A   Mostly Cloudy
3:35 PM 41.0 °F 30.0 °F 17.6 °F 39% 30.04 in 10.0 mi NNW 28.8 mph 38.0 mph N/A   Mostly Cloudy
3:55 PM 41.0 °F 30.2 °F 17.6 °F 39% 30.04 in 10.0 mi NNW 27.6 mph 38.0 mph N/A   Scattered Clouds
4:15 PM 41.0 °F 30.5 °F 15.8 °F 36% 30.04 in 10.0 mi NNW 26.5 mph 35.7 mph N/A   Scattered Clouds
4:35 PM 41.0 °F 30.5 °F 17.6 °F 39% 30.03 in 10.0 mi North 26.5 mph 36.8 mph N/A   Scattered Clouds
4:55 PM 41.0 °F 30.7 °F 15.8 °F 36% 30.04 in 10.0 mi NNW 25.3 mph 38.0 mph N/A   Clear
5:15 PM 41.0 °F 30.5 °F 15.8 °F 36% 30.04 in 10.0 mi NNW 26.5 mph 34.5 mph N/A   Clear
5:35 PM 39.2 °F 28.5 °F 14.0 °F 36% 30.05 in 10.0 mi NNW 24.2 mph 32.2 mph N/A   Clear
5:55 PM 39.2 °F 29.3 °F 14.0 °F 36% 30.05 in 10.0 mi North 20.7 mph 29.9 mph N/A   Clear
6:15 PM 39.2 °F 28.0 °F 14.0 °F 36% 30.04 in 10.0 mi North 26.5 mph 32.2 mph N/A   Clear
6:35 PM 37.4 °F 26.6 °F 14.0 °F 38% 30.05 in 10.0 mi NNW 21.9 mph 27.6 mph N/A   Clear
6:55 PM 37.4 °F 27.8 °F 14.0 °F 38% 30.05 in 10.0 mi North 17.3 mph 27.6 mph N/A   Clear
7:15 PM 37.4 °F 26.9 °F 14.0 °F 38% 30.05 in 10.0 mi NNW 20.7 mph 27.6 mph N/A   Clear
7:35 PM 35.6 °F 25.5 °F 14.0 °F 41% 30.06 in 10.0 mi NNW 17.3 mph 23.0 mph N/A   Clear
7:55 PM 35.6 °F 27.1 °F 15.8 °F 44% 30.07 in 10.0 mi NNW 12.7 mph 23.0 mph N/A   Clear
8:15 PM 33.8 °F 25.8 °F 15.8 °F 48% 30.08 in 10.0 mi NNW 10.4 mph - N/A   Clear
8:35 PM 33.8 °F 26.4 °F 15.8 °F 48% 30.09 in 10.0 mi NNW 9.2 mph - N/A   Clear
8:55 PM 32.0 °F 24.2 °F 15.8 °F 51% 30.09 in 10.0 mi NNW 9.2 mph - N/A   Clear
9:15 PM 32.0 °F 26.4 °F 15.8 °F 51% 30.10 in 10.0 mi NNW 5.8 mph - N/A   Clear
9:35 PM 32.0 °F 24.8 °F 17.6 °F 55% 30.11 in 10.0 mi NW 8.1 mph - N/A   Clear
9:55 PM 32.0 °F 25.6 °F 17.6 °F 55% 30.11 in 10.0 mi NW 6.9 mph - N/A   Clear
10:15 PM 32.0 °F 26.4 °F 17.6 °F 55% 30.12 in 10.0 mi NW 5.8 mph - N/A   Clear
10:35 PM 30.2 °F 24.3 °F 17.6 °F 60% 30.12 in 10.0 mi NW 5.8 mph - N/A   Clear
10:55 PM 28.4 °F 21.2 °F 17.6 °F 64% 30.12 in 10.0 mi NW 6.9 mph - N/A   Clear
11:15 PM 28.4 °F 21.2 °F 17.6 °F 64% 30.12 in 10.0 mi WNW 6.9 mph - N/A   Clear
11:35 PM 28.4 °F 22.2 °F 17.6 °F 64% 30.12 in 10.0 mi WNW 5.8 mph - N/A   Clear
11:55 PM 26.6 °F 19.1 °F 17.6 °F 69% 30.12 in 10.0 mi WNW 6.9 mph - N/A   Clear
12:15 AM 26.6 °F 20.0 °F 17.6 °F 69% 30.11 in 10.0 mi West 5.8 mph - N/A   Clear
12:35 AM 24.8 °F 16.1 °F 17.6 °F 74% 30.11 in 10.0 mi West 8.1 mph - N/A   Clear
12:55 AM 23.0 °F 14.7 °F 17.6 °F 80% 30.11 in 10.0 mi West 6.9 mph - N/A   Clear